This demonstration page uses our WeatherBlox Daily Observations layout. Learn more.

Hourly Observations for April 6, 2018

Temp ( °F °C ) Dew Point ( °F °C ) Humidity (%) Winds ( mph kmh ) Pressure ( in mb ) Visibility ( mi km ) Precip ( " mm )
12:15 am 00:15 Cloudy 42 5.8 31 -0.3 65 65 NE 14 22 30.09 1019 10 16.0934 0 0
12:35 am 00:35 Cloudy 42 5.6 32 -0.1 67 67 NE 16 26 30.09 1019 10 16.0934 0 0
12:55 am 00:55 Cloudy 42 5.3 32 0 69 69 NE 17 28 30.09 1019 10 16.0934 0 0
1:15 am 01:15 Cloudy 41 5 32 0.1 71 71 NE 17 28 30.12 1020 10 16.0934 0 0
1:35 am 01:35 Cloudy 40 4.5 33 0.5 76 76 NE 21 33 30.12 1020 10 16.0934 0 0
1:55 am 01:55 Cloudy 38 3.6 33 0.6 81 81 NE 18 30 30.12 1020 10 16.0934 0 0
2:15 am 02:15 Cloudy 37 2.5 32 0.1 84 84 NNE 16 26 30.15 1021 10 16.0934 0 0
2:35 am 02:35 Cloudy 35 1.6 32 0 89 89 NNE 20 31 30.15 1021 10 16.0934 0 0
2:55 am 02:55 Cloudy 33 0.8 31 -0.3 92 92 NNE 22 35 30.15 1021 10 16.0934 0 0
3:15 am 03:15 Cloudy 33 0.4 31 -0.7 92 92 NE 21 33 30.15 1021 10 16.0934 0 0
3:35 am 03:35 Cloudy 32 0.2 31 -0.8 93 93 NE 20 31 30.15 1021 10 16.0934 0 0
3:55 am 03:55 Cloudy 32 -0.2 28 -2.2 87 87 NE 24 39 30.18 1022 10 16.0934 0 0
4:15 am 04:15 Cloudy 30 -0.9 26 -3.2 85 85 NNE 22 35 30.21 1023 10 16.0934 0 0
4:35 am 04:35 Cloudy 30 -1 26 -3.3 85 85 NE 17 28 30.21 1023 10 16.0934 0 0
4:55 am 04:55 Cloudy 30 -1 26 -3.2 85 85 NE 17 28 30.21 1023 10 16.0934 0 0
5:15 am 05:15 Cloudy 30 -1.2 25 -3.7 83 83 NE 16 26 30.21 1023 10 16.0934 0 0
5:35 am 05:35 Cloudy 30 -1.3 26 -3.5 85 85 NNE 20 31 30.24 1024 10 16.0934 0 0
5:55 am 05:55 Cloudy 29 -1.5 26 -3.3 88 88 NNE 13 20 30.24 1024 10 16.0934 0 0
6:15 am 06:15 Cloudy 29 -1.5 26 -3.4 87 87 NNE 17 28 30.24 1024 10 16.0934 0 0
6:35 am 06:35 Cloudy 29 -1.7 26 -3.5 88 88 NNE 16 26 30.24 1024 10 16.0934 0 0
6:55 am 06:55 Cloudy 29 -1.7 26 -3.2 90 90 NNE 12 19 30.24 1024 10 16.0934 0 0
7:15 am 07:15 Cloudy 29 -1.8 26 -3.3 90 90 NE 15 24 30.24 1024 10 16.0934 0 0
7:35 am 07:35 Cloudy 29 -1.7 26 -3.3 89 89 NNE 16 26 30.24 1024 10 16.0934 0 0
7:55 am 07:55 Cloudy 29 -1.8 26 -3.2 90 90 NNE 14 22 30.24 1024 10 16.0934 0 0
8:15 am 08:15 Cloudy 29 -1.7 26 -3.1 90 90 NNE 14 22 30.24 1024 10 16.0934 0 0
8:35 am 08:35 Cloudy 29 -1.6 26 -3.5 87 87 NNE 16 26 30.24 1024 10 16.0934 0 0
8:55 am 08:55 Cloudy 29 -1.5 26 -3.4 87 87 NNE 18 30 30.24 1024 10 16.0934 0 0
9:15 am 09:15 Cloudy 29 -1.7 26 -3.5 88 88 NE 17 28 30.24 1024 10 16.0934 0 0
9:35 am 09:35 Cloudy 29 -1.7 26 -3.5 88 88 NNE 17 28 30.27 1025 10 16.0934 0 0
9:55 am 09:55 Cloudy 29 -1.6 26 -3.5 87 87 NNE 18 30 30.27 1025 10 16.0934 0 0
10:15 am 10:15 Cloudy 30 -1.2 25 -4.1 81 81 NNE 24 39 30.27 1025 10 16.0934 0 0
10:35 am 10:35 Cloudy 28 -2 24 -4.5 83 83 NNE 25 41 30.33 1027 10 16.0934 0 0
10:55 am 10:55 Cloudy 27 -2.9 21 -6 79 79 NNE 24 39 30.33 1027 10 16.0934 0 0
11:15 am 11:15 Cloudy 26 -3.2 20 -6.4 79 79 NNE 28 44 30.36 1028 10 16.0934 0 0
11:35 am 11:35 Cloudy 26 -3.4 19 -7.4 74 74 NNE 28 44 30.36 1028 10 16.0934 0 0
11:55 am 11:55 Cloudy 25 -3.7 19 -7.3 76 76 NNE 23 37 30.36 1028 10 16.0934 0 0
12:15 pm 12:15 Cloudy 25 -4 19 -7.3 78 78 NNE 24 39 30.36 1028 10 16.0934 0 0
12:35 pm 12:35 Windy with Snow Likely 25 -4.1 18 -7.9 75 75 NNE 28 44 30.39 1029 7 11.26538 0 0
12:55 pm 12:55 Cloudy 24 -4.5 17 -8.5 74 74 N 26 43 30.42 1030 10 16.0934 0 0
1:15 pm 13:15 Cloudy 24 -4.6 18 -7.8 79 79 NNE 28 44 30.42 1030 7 11.26538 0 0
1:35 pm 13:35 Windy with Snow Likely 23 -5.2 16 -8.8 76 76 NNE 25 41 30.42 1030 5 8.0467 0 0
1:55 pm 13:55 Windy with Snow Likely 22 -5.5 17 -8.2 82 82 N 25 41 30.42 1030 3 4.82802 0 0
2:15 pm 14:15 Cloudy with Haze 22 -5.4 16 -8.7 78 78 N 24 39 30.42 1030 5 8.0467 0 0
2:35 pm 14:35 Cloudy with Light Snow 22 -5.8 17 -8.5 81 81 N 18 30 30.42 1030 2 3.21868 0 0
2:55 pm 14:55 Windy with Snow Likely 21 -6 17 -8.1 85 85 N 22 35 30.42 1030 2 3.21868 0 0
3:15 pm 15:15 Windy with Snow Likely 20 -6.6 17 -8.5 87 87 N 20 31 30.42 1030 1.5 2.41401 0 0
3:35 pm 15:35 Windy with Snow Likely 19 -7 16 -9.1 85 85 N 23 37 30.42 1030 1.75 2.816345 0 0
3:55 pm 15:55 Cloudy with Light Snow 19 -7.5 15 -9.4 86 86 N 17 28 30.45 1031 1.5 2.41401 0 0
4:15 pm 16:15 Cloudy with Light Snow 18 -7.7 15 -9.4 88 88 N 14 22 30.45 1031 1 1.60934 0 0
4:35 pm 16:35 Cloudy with Light Snow 18 -7.8 14 -9.8 86 86 N 16 26 30.45 1031 2.5 4.02335 0 0
4:55 pm 16:55 Cloudy with Light Snow 18 -7.8 14 -10.2 83 83 N 18 30 30.45 1031 2 3.21868 0 0
5:15 pm 17:15 Cloudy 19 -7 12 -11 73 73 N 15 24 30.42 1030 10 16.0934 0 0
5:35 pm 17:35 Cloudy 19 -7 10 -12 68 68 N 15 24 30.42 1030 10 16.0934 0 0
5:55 pm 17:55 Cloudy 19 -7 10 -12.1 67 67 N 14 22 30.42 1030 10 16.0934 0 0
6:15 pm 18:15 Cloudy 20 -6.9 10 -12.5 65 65 N 14 22 30.42 1030 10 16.0934 0 0
6:35 pm 18:35 Cloudy 20 -6.8 11 -11.9 67 67 N 13 20 30.42 1030 10 16.0934 0 0
6:55 pm 18:55 Cloudy 20 -6.5 11 -11.6 67 67 N 10 17 30.42 1030 10 16.0934 0 0
7:15 pm 19:15 Cloudy 20 -6.6 11 -11.7 67 67 N 12 19 30.42 1030 10 16.0934 0 0
7:35 pm 19:35 Partly Cloudy 19 -7 12 -11.3 72 72 N 9 15 30.42 1030 10 16.0934 0 0
7:55 pm 19:55 Partly Cloudy 20 -6.8 12 -11.3 71 71 N 10 17 30.42 1030 10 16.0934 0 0
8:15 pm 20:15 Partly Cloudy 19 -7 11 -11.4 71 71 NNE 10 17 30.48 1032 10 16.0934 0 0
8:35 pm 20:35 Mostly Cloudy 19 -7 11 -11.6 70 70 NNE 9 15 30.48 1032 10 16.0934 0 0
8:55 pm 20:55 Mostly Cloudy 19 -7 11 -11.8 69 69 NNE 10 17 30.48 1032 10 16.0934 0 0
9:15 pm 21:15 Partly Cloudy 19 -7.2 11 -11.9 69 69 NNE 10 17 30.48 1032 10 16.0934 0 0
9:35 pm 21:35 Partly Cloudy 19 -7.5 11 -11.6 73 73 NNE 9 15 30.48 1032 10 16.0934 0 0
9:55 pm 21:55 Partly Cloudy 19 -7.3 11 -11.6 72 72 NNE 9 15 30.48 1032 10 16.0934 0 0
10:15 pm 22:15 Mostly Cloudy 18 -7.6 11 -11.6 73 73 NNE 8 13 30.48 1032 10 16.0934 0 0
10:35 pm 22:35 Partly Cloudy 18 -7.7 11 -11.7 73 73 NNE 7 11 30.48 1032 10 16.0934 0 0
10:55 pm 22:55 Partly Cloudy 18 -8 11 -11.6 76 76 N 6 9 30.48 1032 10 16.0934 0 0
11:15 pm 23:15 Partly Cloudy 18 -8 11 -11.5 76 76 N 5 7 30.48 1032 10 16.0934 0 0
11:35 pm 23:35 Partly Cloudy 18 -8 11 -11.5 76 76 N 6 9 30.48 1032 10 16.0934 0 0
11:55 pm 23:55 Clear 18 -8 11 -11.6 76 76 N 5 7 30.48 1032 10 16.0934 0 0

Powered by AerisWeather